Weather History for KMHS - April, 2013

Change the Weather History Date:

Saturday, April 20, 2013

  Actual Average Record
Temperature  
Mean Temperature 54 °F 48 °F  
Max Temperature 67 °F 62 °F 84 °F (2009)
Min Temperature 40 °F 34 °F 15 °F (2008)
Degree Days  
Heating Degree Days 11 17  
Month to date heating degree days 339 378  
Since 1 July heating degree days 4672 5057  
Cooling Degree Days 0 0  
Month to date cooling degree days 0 0  
Year to date cooling degree days 0 0  
Growing Degree Days 2 (Base 50)    
Moisture  
Dew Point 28 °F    
Average Humidity 43    
Maximum Humidity 76    
Minimum Humidity 18    
Precipitation  
Precipitation 0.00 in 0.09 in 1.84 in (1955)
Month to date precipitation 0.77 2.08  
Year to date precipitation 5.51 22.33  
Sea Level Pressure  
Sea Level Pressure 30.23 in    
Wind  
Wind Speed 7 mph (NNW)    
Max Wind Speed 15 mph    
Max Gust Speed 26 mph    
Visibility 10 miles    
Events      
T = Trace of Precipitation, MM = Missing Value Source: NWS Daily Summary

Daily Weather History Graph

Daily Weather History Graph

Search for Another Location

Airport or City:

Trip Planner

Search our weather history database for the weather conditions in past years. The results will help you decide how hot, cold, wet, or windy it might be!

Date:

Astronomy

Apr. 20, 2013 Rise Set
Actual Time 6:21 AM PDT 7:55 PM PDT
Civil Twilight 5:52 AM PDT 8:24 PM PDT
Nautical Twilight 5:17 AM PDT 8:59 PM PDT
Astronomical Twilight 4:40 AM PDT 9:37 PM PDT
Moon 2:41 PM PDT (4/20) 3:17 AM PDT (4/20)
Length of Visible Light 14h 31m
Length of Day
13h 33m
Waxing Gibbous, 72% of the Moon is Illuminated
Apr 20
Waxing Gibbous
Apr 25
Full
May 2
Last Quarter
May 9
New
May 17
First Quarter

Hourly Weather History & Observations

Time (PDT) Temp. Windchill Dew Point Humidity Pressure Visibility Wind Dir Wind Speed Gust Speed Precip Events Conditions
12:56 AM 46.0 °F 41.9 °F 32.0 °F 58% 30.27 in 10.0 mi WNW 8.1 mph 18.4 mph N/A   Clear
1:56 AM 44.1 °F 40.8 °F 32.0 °F 63% 30.27 in 10.0 mi Variable 5.8 mph - N/A   Clear
2:56 AM 43.0 °F 41.3 °F 32.0 °F 65% 30.28 in 10.0 mi North 3.5 mph - N/A   Clear
3:56 AM 42.1 °F 37.7 °F 32.0 °F 67% 30.28 in 10.0 mi NNW 6.9 mph - N/A   Clear
4:56 AM 41.0 °F 37.1 °F 32.0 °F 70% 30.29 in 10.0 mi NNE 5.8 mph - N/A   Clear
5:56 AM 41.0 °F 35.8 °F 32.0 °F 70% 30.29 in 10.0 mi North 8.1 mph - N/A   Clear
6:56 AM 39.9 °F 34.5 °F 32.0 °F 73% 30.30 in 10.0 mi NNE 8.1 mph - N/A   Clear
7:56 AM 44.1 °F 40.8 °F 33.1 °F 65% 30.30 in 10.0 mi North 5.8 mph 16.1 mph N/A   Clear
8:56 AM 48.0 °F - 33.1 °F 56% 30.30 in 10.0 mi NNE 9.2 mph 20.7 mph N/A   Clear
9:56 AM 51.1 °F - 30.0 °F 44% 30.27 in 10.0 mi North 9.2 mph - N/A   Clear
10:56 AM 54.0 °F - 28.9 °F 38% 30.27 in 10.0 mi North 9.2 mph 23.0 mph N/A   Clear
11:56 AM 57.9 °F - 28.0 °F 32% 30.26 in 10.0 mi North 10.4 mph 18.4 mph N/A   Clear
12:56 PM 61.0 °F - 25.0 °F 25% 30.22 in 10.0 mi NW 8.1 mph 17.3 mph N/A   Clear
1:56 PM 64.0 °F - 19.0 °F 18% 30.21 in 10.0 mi NNW 8.1 mph 17.3 mph N/A   Clear
2:56 PM 64.9 °F - 21.0 °F 19% 30.19 in 10.0 mi NW 10.4 mph 18.4 mph N/A   Clear
3:56 PM 66.0 °F - 21.0 °F 18% 30.16 in 10.0 mi WNW 12.7 mph 24.2 mph N/A   Clear
4:56 PM 64.9 °F - 23.0 °F 20% 30.15 in 10.0 mi Variable 6.9 mph 20.7 mph N/A   Clear
5:56 PM 64.9 °F - 24.1 °F 21% 30.15 in 10.0 mi NW 9.2 mph 18.4 mph N/A   Clear
6:56 PM 63.0 °F - 27.0 °F 26% 30.15 in 10.0 mi Variable 6.9 mph 19.6 mph N/A   Clear
7:56 PM 57.9 °F - 24.1 °F 27% 30.17 in 10.0 mi NNW 6.9 mph - N/A   Clear
8:56 PM 55.0 °F - 25.0 °F 31% 30.19 in 10.0 mi Calm Calm - N/A   Clear
9:56 PM 52.0 °F - 28.0 °F 40% 30.22 in 10.0 mi Variable 3.5 mph - N/A   Clear
10:56 PM 52.0 °F - 28.9 °F 41% 30.22 in 10.0 mi Variable 5.8 mph - N/A   Clear
11:56 PM 50.0 °F - 30.9 °F 48% 30.21 in 10.0 mi Variable 3.5 mph - N/A   Clear